Weather Roundup
Issued by NWS Corpus Christi, TX

Home | Current Version | Previous Version | Text Only | Print | Product List | Glossary On
Versions: 1 2 3 4 5 6 7 8 9 10 11 12 13 14 15 16 17 18 19 20 21 22 23 24 25 26 27 28 29 30 31 32 33 34 35 36 37 38 39 40 41 42 43 44 45 46 47 48 49 50
000
ASUS44 KCRP 231210
HRRCRP

SOUTH TEXAS REGIONAL WEATHER ROUNDUP
NATIONAL WEATHER SERVICE CORPUS CHRISTI TX
700 AM CDT THU OCT 23 2014


TXZ229>244-231300-
...CORPUS CHRISTI AREA OBSERVATIONS...

CITY           SKY/WX    TMP DP  RH WIND       PRES   REMARKS
CORPUS CHRISTI MOCLDY    66  64  93 N3        30.04R
NAS CORPUS CHR MOCLDY    71  68  90 NE8       30.04R
ROCKPORT       PTCLDY    68  65  90 NE6       30.05R
KINGSVILLE NAS MOCLDY    64  64 100 N6        30.04S
ALICE          MOCLDY    65  62  90 N7        30.05S
FALFURRIAS     MOCLDY    65  64  94 N3        30.04S
$$

...VICTORIA AREA OBSERVATIONS...

CITY           SKY/WX    TMP DP  RH WIND       PRES   REMARKS
VICTORIA       MOCLDY    61  58  90 N8        30.09R FOG
BEEVILLE       FAIR      66  62  87 N5        30.07R
PLEASANTON     MOCLDY    66  64  91 CALM      30.10S
SAN ANTONIO    CLOUDY    68  65  90 NW3       30.10R
$$

...LAREDO AREA OBSERVATIONS...

CITY           SKY/WX    TMP DP  RH WIND       PRES   REMARKS
LAREDO         MOCLDY    70  65  84 NE7       30.10R
COTULLA        CLOUDY    70  65  84 NE3       30.08R
DEL RIO        MOCLDY    63  62  97 CALM      30.08S FOG
MCALLEN        MOCLDY    70  66  87 N8        30.04R
HEBBRONVILLE   CLOUDY    67  64  87 N3        30.08S
$$

...OTHER TEXAS OBSERVATIONS...

CITY           SKY/WX    TMP DP  RH WIND       PRES   REMARKS
BROWNSVILLE    CLEAR     69  67  93 NW6       30.01R
HOUSTON        CLOUDY    61  55  81 N3        30.09R
COL. STATION   LGT RAIN  65  56  72 NE3       30.11R
AUSTIN         CLOUDY    64  62  93 CALM      30.11R
WACO           CLOUDY    63  59  87 CALM      30.13R
FORT WORTH     LGT RAIN  64  55  72 SE6       30.13R
WICHITA FALLS  PTCLDY    61  58  90 SE8       30.09S
LUBBOCK        CLEAR     51  49  92 SE3       30.12R FOG
EL PASO        CLEAR     58  53  84 CALM      30.15R
$$

...MARINE OBSERVATIONS...

STATION/POSITION TIME  SKY/WX   TEMP    WIND        PRES    VSBY  WAVE   SWELL
                                AIR SEA DIR/SP/G                  HT/PER HT/PER
                 (UTC)          (F)     (DEG/KT/KT) (MB)    (MI)  (FT/S) (FT/S)
PORT ARANSAS     1200            76 77   30/  8/ 10 1017.9R
BUOY 90 E PORT A 1200            77 81   60/ 10/ 12 1017.0R         4/ 7   3/ 7
BUOY 45 SE BAFFI 1100            78 80   50/  8/ 10 1015.9R         5/ 7   5/ 7
BUOY 200 E PT IS 1100            79 81   60/ 16/ 17 1014.2          6/ 7   3/13
BUOY 15 E GALVES 1200            71 78   40/ 16/ 17 1017.3R         3/ 4
$$



USA.gov is the U.S. government's official web portal to all federal, state and local government web resources and services.